Regional Weather Roundup
Issued by NWS

Home | Current Version | Previous Version | Text Only | Print | Product List | Glossary Off
Versions: 1 2 3 4 5 6 7 8 9 10 11 12 13 14 15 16 17 18 19 20 21 22 23 24 25 26 27 28 29 30 31 32 33 34 35 36 37 38 39 40 41 42 43 44 45 46 47 48 49 50

000
ASUS45 KBOU 242310
RWRCO

WEATHER ROUNDUP FOR COLORADO
NATIONAL WEATHER SERVICE DENVER/BOULDER CO
500 PM MDT TUE APR 24 2018

NOTE: "FAIR" INDICATES FEW OR NO CLOUDS BELOW 12000 FEET WITH NO
SIGNIFICANT WEATHER AND/OR OBSTRUCTIONS TO VISIBILITY.

COZ001>005-013-030-031-250000-
...NORTHWEST COLORADO...

CITY           SKY/WX    TMP DP  RH WIND       PRES   REMARKS
CRAIG          FAIR      53  23  31 NW18G26   30.28S
HAYDEN         FAIR      51  20  29 W18G29    30.27R
MEEKER         FAIR      55  22  27 N15G25    30.28R
RANGELY        FAIR      57  22  25 NE14G22   30.28S
RABBIT EARS PA CLOUDY    34  21  60 W6        30.33R WCI  29
STEAMBOAT SPGS PTSUNNY   47  21  35 W9        30.25F
WALDEN         FAIR      43  16  33 NE17      30.32R
$$

COZ006>008-011-250000-
...WEST CENTRAL VALLEYS...

CITY           SKY/WX    TMP DP  RH WIND       PRES   REMARKS
GRAND JUNCTION CLOUDY    68  19  15 NW16G37   30.16R
MONTROSE       FAIR      63  24  22 NW26G33   30.15R
EAGLE          FAIR      59  12  15 W14G26    30.20F
RIFLE          FAIR      61  21  21 NW13G23   30.21R
DELTA          FAIR      70  18  13 NW8G29    30.11R
NUCLA          FAIR      70  21  16 NW17      30.16R
$$

COZ017>023-064>068-250000-
...SOUTHWEST COLORADO...

CITY           SKY/WX    TMP DP  RH WIND       PRES   REMARKS
DURANGO        FAIR      69  20  15 W22G29    30.10R
CORTEZ         PTSUNNY   73  18  12 W8        30.07F
PAGOSA SPRINGS PTSUNNY   67  14  13 W17G24    30.14S
TELLURIDE      CLOUDY    53  22  29 W14G20    30.28S
WOLF CREEK PAS CLOUDY    41  19  42 SW17G31   30.38R
$$

COZ009-010-012-014-032>034-037-058>063-250000-
...CENTRAL COLORADO...

CITY           SKY/WX    TMP DP  RH WIND       PRES   REMARKS
ASPEN          CLOUDY    50  23  34 N15G23    30.22R
BUENA VISTA    LGT RAIN  37  33  84 SE16G22   30.26R
COPPER MTN     NOT AVBL
BERTHOUD PASS  CLOUDY    19   9  63 MISG      30.32S
COTTONWOOD PAS LGT SNOW  39  37  93 E6        30.27S
GUNNISON       PTSUNNY   56  32  40 SW17G31   30.17R
GRANBY         CLOUDY    40  31  71 S8        30.27S
KREMMLING      FAIR      54  23  30 N14G24    30.25S
LEADVILLE      LGT RAIN  40  28  62 N12G21    30.25R
MONARCH PASS   CLOUDY    34  25  69 W30       30.43R WCI  20
SALIDA         CLOUDY    38  31  76 SE16G26   30.33R
SUNLIGHT       PTSUNNY   32  18  55 W10G20    30.37R WCI  24
WILKERSON PASS SNOW      19  18  93 SE8       30.33S VSB<1/4 WCI   9
$$

COZ069>075-250000-
...SAN LUIS VALLEY/SANGRE DE CRISTO MOUNTAINS...

CITY           SKY/WX    TMP DP  RH WIND       PRES   REMARKS
ALAMOSA        CLOUDY    56  31  38 E15       30.13R
DEL NORTE      LGT RAIN  57  30  36 SE9G30    30.13F
LA VETA PASS   SNOW      27  23  86 MISG      30.41F VSB 1/4
SAGUACHE       NOT AVBL
$$

COZ035-036-038>040-250000-
...NORTHERN COLORADO FRONT RANGE...

CITY           SKY/WX    TMP DP  RH WIND       PRES   REMARKS
DENVER INTL AP CLOUDY    40  31  70 N6        30.38S
AURORA         NOT AVBL
FRONT RANGE AP CLOUDY    41  32  70 NW5       30.39S
ERIE MUNI ARPT CLOUDY    38  35  87 W5        30.46S
BOULDER MUN AP DRIZZLE   36  36 100 SW6       30.41R
CENTENNIAL     LGTSLEET  35  33  92 N12       30.38S VSB 3/4 WCI  27
BROOMFIELD     LGT SNOW  36  34  93 W8        30.40F VSB 1
FORT COLLINS   CLOUDY    43  29  57 CALM      30.39S
LONGMONT       MIX PCPN  40  35  84 SW9       30.42S
$$

COZ041-046-047-076>085-087-088-250000-
...PIKES PEAK/PALMER DIVIDE AND SOUTHERN FOOTHILLS...

CITY           SKY/WX    TMP DP  RH WIND       PRES   REMARKS
COLO. SPRINGS  LGT SNOW  38  30  73 N16G23    30.35S
A. F. ACADEMY  NOT AVBL
SCHRIEVER AFB  NOT AVBL
CHEYENNE MTN   NOT AVBL
ELLICOTT         N/A    N/A N/A N/A NE20      30.34R
FALCON         FLURRIES  34  28  76 N13G20    30.35R WCI  25
FORT CARSON    NOT AVBL
LIMON          LGT SNOW  34  33  96 N13       30.36S FOG     WCI  25
MONUMENT HILL  LGT SNOW  32  30  93 N10       30.37F WCI  24
CANON CITY     LGT RAIN  37  36  93 SE14      30.37R
WALSENBURG     NOT AVBL
TRINIDAD       CLOUDY    38  34  85 NE9       30.36S
$$

COZ042>045-048>051-090-091-250000-
...NORTHEAST COLORADO...

CITY           SKY/WX    TMP DP  RH WIND       PRES   REMARKS
GREELEY ARPT   CLOUDY    44  26  49 N12       30.40R
AKRON          CLOUDY    42  30  62 N22       30.36F
BURLINGTON     CLOUDY    41  34  76 N23G33    30.34R
WRAY           CLOUDY    41  32  70 N20G30    30.38S
YUMA           CLOUDY    37  32  81 N22       30.36F
STERLING       NOT AVBL
HOLYOKE        PTSUNNY   43  32  65 N21G29    30.38S
FORT MORGAN    FAIR      46  26  45 N17       30.38F
$$

COZ086-089-092>099-250000-
...SOUTHEAST COLORADO...

CITY           SKY/WX    TMP DP  RH WIND       PRES   REMARKS
PUEBLO         LGT RAIN  40  36  86 SE13      30.38S
LA JUNTA       CLOUDY    45  31  58 N18       30.37R
LAMAR          CLOUDY    47  32  56 N15       30.32S
SPRINGFIELD      N/A     42  33  70 N22G31    30.30F
$$




USA.gov is the U.S. government's official web portal to all federal, state and local government web resources and services.